Regional Weather Roundup
Issued by NWS

Home | Current Version | Previous Version | Graphics & Text | Print | Product List | Glossary On
Versions: 1 2 3 4 5 6 7 8 9 10 11 12 13 14 15 16 17 18 19 20 21 22 23 24 25 26 27 28 29 30 31 32 33 34 35 36 37 38 39 40 41 42 43 44 45 46 47 48 49 50
000
ASUS43 KLMK 171002
RWRKY
KENTUCKY REGIONAL WEATHER ROUNDUP
NATIONAL WEATHER SERVICE LOUISVILLE KY
500 AM EST WED JAN 17 2018

NOTE "FAIR" INDICATES FEW OR NO CLOUDS BELOW 12,000 FEET
WITH NO SIGNIFICANT WEATHER AND/OR OBSTRUCTIONS TO VISIBILITY.

KYZ001>023-026-027-061>063-070>075-171100-
WESTERN AND SOUTH CENTRAL KENTUCKY

CITY           SKY/WX    TMP DP  RH WIND       PRES   REMARKS
PADUCAH        FLURRIES  10   2  69 N9        30.67S WCI  -3
HENDERSON      FLURRIES  10   6  84 NW8       30.66S WCI  -2
OWENSBORO      FLURRIES  10   6  84 NW12      30.65S WCI  -5
HOPKINSVILLE   FLURRIES   6   2  85 NW9       30.62F WCI  -8
BOWLING GREEN  CLOUDY     8   3  80 NW6       30.62S WCI  -2
GLASGOW        NOT AVBL
$$

KYZ024-025-028>034-038-045-046-053-171100-
NORTH CENTRAL KENTUCKY

CITY           SKY/WX    TMP DP  RH WIND       PRES   REMARKS
LOUISVILLE/SDF LGT SNOW   9   4  80 W7        30.60S WCI  -2
LOUISVILLE/LOU LGT SNOW   9   5  84 W3        30.61S FOG
FORT KNOX      CLOUDY     7   2  81 CALM      30.57S BLWGSNOW
$$

KYZ035>037-039>044-047>052-055>060-089>105-171100-
NORTHEAST KENTUCKY

CITY           SKY/WX    TMP DP  RH WIND       PRES   REMARKS
LEXINGTON      FLURRIES   6   1  80 NW7       30.54S WCI  -6
COVINGTON      FLURRIES   8   5  87 W6        30.52S WCI  -2
FRANKFORT      CLOUDY     7   0  73 W3        30.55S
$$

KYZ054-064>069-076>088-106>120-171100-
SOUTHEAST KENTUCKY

CITY           SKY/WX    TMP DP  RH WIND       PRES   REMARKS
JACKSON        LGT SNOW   4   0  83 CALM      30.47S FOG
LONDON         LGT SNOW   3   0  87 CALM      30.49F
SOMERSET       NOT AVBL
MIDDLESBORO    CLOUDY     7   1  75 N7        30.48S WCI  -5
MONTICELLO     LGT SNOW   3  -1  83 NE6       30.56S FOG     WCI  -8
$$





USA.gov is the U.S. government's official web portal to all federal, state and local government web resources and services.